Time,TemperatureF,DewpointF,PressureIn,WindDirection,WindDirectionDegrees,WindSpeedMPH,WindSpeedGustMPH,Humidity,HourlyPrecipIn,Conditions,Clouds,dailyrainin,SoftwareType,DateUTC
2013-02-25 00:01:00,23.3,21.1,30.16,East,94,0.0,0.0,91,0.00,,,0.00,Wunderground v.1.15,2013-02-25 06:01:00,
2013-02-25 00:06:00,23.2,21.0,30.16,East,94,0.0,0.0,91,0.00,,,0.00,Wunderground v.1.15,2013-02-25 06:06:00,
2013-02-25 00:11:00,23.2,21.0,30.16,East,94,0.0,0.0,91,0.00,,,0.00,Wunderground v.1.15,2013-02-25 06:11:00,
2013-02-25 00:16:00,23.2,21.0,30.16,East,94,0.0,1.0,91,0.00,,,0.00,Wunderground v.1.15,2013-02-25 06:16:00,
2013-02-25 00:21:00,23.2,21.0,30.16,East,94,0.0,0.0,91,0.00,,,0.00,Wunderground v.1.15,2013-02-25 06:21:00,
2013-02-25 00:26:00,23.1,20.9,30.16,East,94,0.0,1.0,91,0.00,,,0.00,Wunderground v.1.15,2013-02-25 06:26:00,
2013-02-25 00:31:00,23.2,21.0,30.16,East,94,1.0,1.0,91,0.00,,,0.00,Wunderground v.1.15,2013-02-25 06:31:00,
2013-02-25 00:36:00,23.1,20.9,30.16,East,94,2.0,2.0,91,0.00,,,0.00,Wunderground v.1.15,2013-02-25 06:36:00,
2013-02-25 00:41:00,23.1,20.9,30.16,East,94,2.0,2.0,91,0.00,,,0.00,Wunderground v.1.15,2013-02-25 06:41:00,
2013-02-25 00:46:00,23.0,20.8,30.16,East,90,1.0,2.0,91,0.00,,,0.00,Wunderground v.1.15,2013-02-25 06:46:00,
2013-02-25 00:51:00,22.9,20.7,30.16,NE,55,3.0,4.0,91,0.00,,,0.00,Wunderground v.1.15,2013-02-25 06:51:00,
2013-02-25 00:56:00,22.8,20.6,30.16,NE,55,3.0,4.0,91,0.00,,,0.00,Wunderground v.1.15,2013-02-25 06:56:00,
2013-02-25 01:01:00,22.8,20.6,30.16,NE,54,2.0,3.0,91,0.00,,,0.00,Wunderground v.1.15,2013-02-25 07:01:00,
2013-02-25 01:06:00,22.8,20.6,30.16,NE,45,2.0,3.0,91,0.00,,,0.00,Wunderground v.1.15,2013-02-25 07:06:00,
2013-02-25 01:12:00,22.7,20.5,30.16,NE,44,4.0,4.0,91,0.00,,,0.00,Wunderground v.1.15,2013-02-25 07:12:00,
2013-02-25 01:17:00,22.7,20.7,30.16,NNE,12,5.0,5.0,92,0.00,,,0.00,Wunderground v.1.15,2013-02-25 07:17:00,
2013-02-25 01:22:00,22.6,20.6,30.16,North,5,3.0,5.0,92,0.00,,,0.00,Wunderground v.1.15,2013-02-25 07:22:00,
2013-02-25 01:27:00,22.6,20.6,30.16,North,5,2.0,5.0,92,0.00,,,0.00,Wunderground v.1.15,2013-02-25 07:27:00,
2013-02-25 01:32:00,22.7,20.7,30.16,North,5,1.0,3.0,92,0.00,,,0.00,Wunderground v.1.15,2013-02-25 07:32:00,
2013-02-25 01:37:00,22.7,20.7,30.17,North,5,2.0,4.0,92,0.00,,,0.00,Wunderground v.1.15,2013-02-25 07:37:00,
2013-02-25 01:42:00,22.7,20.7,30.16,North,5,1.0,3.0,92,0.00,,,0.00,Wunderground v.1.15,2013-02-25 07:42:00,
2013-02-25 01:47:00,22.7,21.0,30.16,North,5,2.0,3.0,93,0.00,,,0.00,Wunderground v.1.15,2013-02-25 07:47:00,
2013-02-25 01:52:00,22.7,21.0,30.16,North,5,0.0,3.0,93,0.00,,,0.00,Wunderground v.1.15,2013-02-25 07:52:00,
2013-02-25 01:57:00,22.7,21.0,30.16,North,5,1.0,3.0,93,0.00,,,0.00,Wunderground v.1.15,2013-02-25 07:57:00,
2013-02-25 02:02:00,22.7,21.0,30.16,North,5,0.0,1.0,93,0.00,,,0.00,Wunderground v.1.15,2013-02-25 08:02:00,
2013-02-25 02:07:00,22.8,21.3,30.16,North,5,0.0,1.0,94,0.00,,,0.00,Wunderground v.1.15,2013-02-25 08:07:00,
2013-02-25 02:12:00,22.9,21.4,30.16,North,5,0.0,1.0,94,0.00,,,0.00,Wunderground v.1.15,2013-02-25 08:12:00,
2013-02-25 02:17:00,22.9,21.4,30.15,North,5,0.0,1.0,94,0.00,,,0.00,Wunderground v.1.15,2013-02-25 08:17:00,
2013-02-25 02:22:00,22.8,21.3,30.15,North,5,0.0,2.0,94,0.00,,,0.00,Wunderground v.1.15,2013-02-25 08:22:00,
2013-02-25 02:27:00,22.8,21.3,30.15,North,5,2.0,3.0,94,0.00,,,0.00,Wunderground v.1.15,2013-02-25 08:27:00,
2013-02-25 02:32:00,22.8,21.3,30.15,North,5,5.0,5.0,94,0.00,,,0.00,Wunderground v.1.15,2013-02-25 08:32:00,
2013-02-25 02:37:00,22.7,21.2,30.14,North,355,3.0,6.0,94,0.00,,,0.00,Wunderground v.1.15,2013-02-25 08:37:00,
2013-02-25 02:42:00,22.8,21.3,30.14,North,355,4.0,5.0,94,0.00,,,0.00,Wunderground v.1.15,2013-02-25 08:42:00,
2013-02-25 02:47:00,22.9,21.7,30.14,North,351,3.0,6.0,95,0.00,,,0.00,Wunderground v.1.15,2013-02-25 08:47:00,
2013-02-25 02:52:00,22.9,21.7,30.14,North,350,3.0,5.0,95,0.00,,,0.00,Wunderground v.1.15,2013-02-25 08:52:00,
2013-02-25 02:57:00,22.8,21.6,30.14,NNW,345,3.0,5.0,95,0.00,,,0.00,Wunderground v.1.15,2013-02-25 08:57:00,
2013-02-25 03:02:00,22.8,21.6,30.14,NNW,331,3.0,7.0,95,0.00,,,0.00,Wunderground v.1.15,2013-02-25 09:02:00,
2013-02-25 03:07:00,22.9,21.7,30.14,NNW,331,5.0,7.0,95,0.00,,,0.00,Wunderground v.1.15,2013-02-25 09:07:00,
2013-02-25 03:13:00,22.9,21.7,30.14,NW,324,5.0,7.0,95,0.00,,,0.00,Wunderground v.1.15,2013-02-25 09:13:00,
2013-02-25 03:18:00,22.9,21.7,30.14,NW,323,6.0,9.0,95,0.00,,,0.00,Wunderground v.1.15,2013-02-25 09:18:00,
2013-02-25 03:23:00,22.9,21.7,30.13,NNW,328,7.0,10.0,95,0.00,,,0.00,Wunderground v.1.15,2013-02-25 09:23:00,
2013-02-25 03:28:00,22.9,21.7,30.13,NW,325,3.0,10.0,95,0.00,,,0.00,Wunderground v.1.15,2013-02-25 09:28:00,
2013-02-25 03:33:00,22.8,21.6,30.13,NNW,327,9.0,10.0,95,0.00,,,0.00,Wunderground v.1.15,2013-02-25 09:33:00,
2013-02-25 03:38:00,22.7,21.5,30.13,NW,323,9.0,10.0,95,0.00,,,0.00,Wunderground v.1.15,2013-02-25 09:38:00,
2013-02-25 03:43:00,22.7,21.5,30.13,NNW,327,4.0,7.0,95,0.00,,,0.00,Wunderground v.1.15,2013-02-25 09:43:00,
2013-02-25 03:48:00,22.7,21.5,30.13,NW,323,6.0,8.0,95,0.00,,,0.00,Wunderground v.1.15,2013-02-25 09:48:00,
2013-02-25 03:53:00,22.6,21.4,30.13,NNW,329,5.0,7.0,95,0.00,,,0.00,Wunderground v.1.15,2013-02-25 09:53:00,
2013-02-25 03:58:00,22.6,21.4,30.13,NNW,329,3.0,7.0,95,0.00,,,0.00,Wunderground v.1.15,2013-02-25 09:58:00,
2013-02-25 04:03:00,22.6,21.4,30.13,NW,325,4.0,6.0,95,0.00,,,0.00,Wunderground v.1.15,2013-02-25 10:03:00,
2013-02-25 04:08:00,22.6,21.4,30.13,NW,325,4.0,6.0,95,0.00,,,0.00,Wunderground v.1.15,2013-02-25 10:08:00,
2013-02-25 04:13:00,22.6,21.4,30.13,NW,325,0.0,7.0,95,0.00,,,0.00,Wunderground v.1.15,2013-02-25 10:13:00,
2013-02-25 04:18:00,22.6,21.4,30.13,NW,325,2.0,7.0,95,0.00,,,0.00,Wunderground v.1.15,2013-02-25 10:18:00,
2013-02-25 04:23:00,22.6,21.4,30.13,NW,325,3.0,4.0,95,0.00,,,0.00,Wunderground v.1.15,2013-02-25 10:23:00,
2013-02-25 04:28:00,22.6,21.4,30.13,NW,325,6.0,7.0,95,0.00,,,0.00,Wunderground v.1.15,2013-02-25 10:28:00,
2013-02-25 04:33:00,22.7,21.5,30.13,NW,325,5.0,6.0,95,0.00,,,0.00,Wunderground v.1.15,2013-02-25 10:33:00,
2013-02-25 04:38:00,22.7,21.5,30.14,NW,325,4.0,7.0,95,0.00,,,0.00,Wunderground v.1.15,2013-02-25 10:38:00,
2013-02-25 04:43:00,22.8,21.6,30.14,NW,325,3.0,4.0,95,0.00,,,0.00,Wunderground v.1.15,2013-02-25 10:43:00,
2013-02-25 04:48:00,22.8,21.6,30.14,NW,318,4.0,6.0,95,0.00,,,0.00,Wunderground v.1.15,2013-02-25 10:48:00,
2013-02-25 04:54:00,22.8,21.6,30.15,NW,318,4.0,4.0,95,0.00,,,0.00,Wunderground v.1.15,2013-02-25 10:54:00,
2013-02-25 04:59:00,22.8,21.6,30.16,NW,318,3.0,5.0,95,0.00,,,0.00,Wunderground v.1.15,2013-02-25 10:59:00,
2013-02-25 05:04:00,22.8,21.6,30.16,NW,318,2.0,5.0,95,0.00,,,0.00,Wunderground v.1.15,2013-02-25 11:04:00,
2013-02-25 05:09:00,22.7,21.5,30.16,NW,318,3.0,5.0,95,0.00,,,0.00,Wunderground v.1.15,2013-02-25 11:09:00,
2013-02-25 05:14:00,22.8,21.6,30.16,NW,318,0.0,3.0,95,0.00,,,0.00,Wunderground v.1.15,2013-02-25 11:14:00,
2013-02-25 05:19:00,22.9,21.7,30.16,NW,318,3.0,4.0,95,0.00,,,0.00,Wunderground v.1.15,2013-02-25 11:19:00,
2013-02-25 05:24:00,22.9,21.7,30.16,NW,318,2.0,4.0,95,0.00,,,0.00,Wunderground v.1.15,2013-02-25 11:24:00,
2013-02-25 05:29:00,22.8,21.6,30.15,NW,318,2.0,4.0,95,0.00,,,0.00,Wunderground v.1.15,2013-02-25 11:29:00,
2013-02-25 05:34:00,22.7,21.5,30.14,NW,318,1.0,3.0,95,0.00,,,0.00,Wunderground v.1.15,2013-02-25 11:34:00,
2013-02-25 05:39:00,22.6,21.4,30.14,NW,318,4.0,4.0,95,0.00,,,0.00,Wunderground v.1.15,2013-02-25 11:39:00,
2013-02-25 05:44:00,22.5,21.3,30.14,NW,318,3.0,5.0,95,0.00,,,0.00,Wunderground v.1.15,2013-02-25 11:44:00,
2013-02-25 05:49:00,22.6,21.4,30.13,NW,318,3.0,5.0,95,0.00,,,0.00,Wunderground v.1.15,2013-02-25 11:49:00,
2013-02-25 05:54:00,22.5,21.3,30.14,North,350,4.0,7.0,95,0.00,,,0.00,Wunderground v.1.15,2013-02-25 11:54:00,
2013-02-25 05:59:00,22.5,21.3,30.14,North,349,1.0,7.0,95,0.00,,,0.00,Wunderground v.1.15,2013-02-25 11:59:00,
2013-02-25 06:04:00,22.6,21.4,30.14,NNW,348,0.0,4.0,95,0.00,,,0.00,Wunderground v.1.15,2013-02-25 12:04:00,
2013-02-25 06:09:00,22.6,21.4,30.15,NNW,348,2.0,4.0,95,0.00,,,0.00,Wunderground v.1.15,2013-02-25 12:09:00,
2013-02-25 06:14:00,22.5,21.3,30.15,NNW,348,1.0,2.0,95,0.00,,,0.00,Wunderground v.1.15,2013-02-25 12:14:00,
2013-02-25 06:19:00,22.4,21.2,30.15,NNW,348,0.0,2.0,95,0.00,,,0.00,Wunderground v.1.15,2013-02-25 12:19:00,
2013-02-25 06:24:00,22.4,21.2,30.15,NNW,348,0.0,2.0,95,0.00,,,0.00,Wunderground v.1.15,2013-02-25 12:24:00,
2013-02-25 06:29:00,22.5,21.3,30.15,NNW,348,2.0,3.0,95,0.00,,,0.00,Wunderground v.1.15,2013-02-25 12:29:00,
2013-02-25 06:34:00,22.5,21.3,30.15,NNW,348,2.0,4.0,95,0.00,,,0.00,Wunderground v.1.15,2013-02-25 12:34:00,
2013-02-25 06:39:00,22.4,21.2,30.15,NNW,348,1.0,4.0,95,0.00,,,0.00,Wunderground v.1.15,2013-02-25 12:39:00,
2013-02-25 06:44:00,22.4,21.2,30.15,NNW,348,5.0,5.0,95,0.00,,,0.00,Wunderground v.1.15,2013-02-25 12:44:00,
2013-02-25 06:49:00,22.5,21.3,30.16,NNW,348,4.0,5.0,95,0.00,,,0.00,Wunderground v.1.15,2013-02-25 12:49:00,
2013-02-25 06:54:00,22.4,21.2,30.16,NNW,348,3.0,4.0,95,0.00,,,0.00,Wunderground v.1.15,2013-02-25 12:54:00,
2013-02-25 06:59:00,22.4,21.2,30.17,NNW,347,5.0,5.0,95,0.00,,,0.00,Wunderground v.1.15,2013-02-25 12:59:00,
2013-02-25 07:04:00,22.4,21.2,30.17,NW,309,5.0,6.0,95,0.00,,,0.00,Wunderground v.1.15,2013-02-25 13:04:00,
2013-02-25 07:09:00,22.4,21.2,30.17,NW,313,6.0,8.0,95,0.00,,,0.00,Wunderground v.1.15,2013-02-25 13:09:00,
2013-02-25 07:14:00,22.3,21.1,30.17,NW,306,7.0,7.0,95,0.00,,,0.00,Wunderground v.1.15,2013-02-25 13:14:00,
2013-02-25 07:19:00,22.2,21.0,30.17,NW,317,3.0,7.0,95,0.00,,,0.00,Wunderground v.1.15,2013-02-25 13:19:00,
2013-02-25 07:24:00,22.2,21.0,30.16,NW,316,3.0,5.0,95,0.00,,,0.00,Wunderground v.1.15,2013-02-25 13:24:00,
2013-02-25 07:29:00,22.2,21.0,30.17,WNW,298,2.0,5.0,95,0.00,,,0.00,Wunderground v.1.15,2013-02-25 13:29:00,
2013-02-25 07:34:00,22.0,20.8,30.16,NW,315,5.0,8.0,95,0.00,,,0.00,Wunderground v.1.15,2013-02-25 13:34:00,
2013-02-25 07:39:00,21.8,20.6,30.16,NW,323,7.0,9.0,95,0.00,,,0.00,Wunderground v.1.15,2013-02-25 13:39:00,
2013-02-25 07:45:00,21.6,20.4,30.16,NW,317,6.0,9.0,95,0.00,,,0.00,Wunderground v.1.15,2013-02-25 13:45:00,
2013-02-25 07:50:00,21.5,20.3,30.16,NW,313,4.0,6.0,95,0.00,,,0.00,Wunderground v.1.15,2013-02-25 13:50:00,
2013-02-25 07:55:00,21.3,20.1,30.16,NW,321,8.0,9.0,95,0.00,,,0.00,Wunderground v.1.15,2013-02-25 13:55:00,
2013-02-25 08:00:00,21.1,19.6,30.16,NW,319,5.0,6.0,94,0.00,,,0.00,Wunderground v.1.15,2013-02-25 14:00:00,
2013-02-25 08:05:00,21.1,19.9,30.16,NNW,338,8.0,8.0,95,0.00,,,0.00,Wunderground v.1.15,2013-02-25 14:05:00,
2013-02-25 08:10:00,21.1,19.9,30.16,NNW,339,8.0,8.0,95,0.00,,,0.00,Wunderground v.1.15,2013-02-25 14:10:00,
2013-02-25 08:15:00,21.2,20.0,30.16,NNW,340,6.0,9.0,95,0.00,,,0.00,Wunderground v.1.15,2013-02-25 14:15:00,
2013-02-25 08:20:00,21.3,20.1,30.16,NNW,336,4.0,6.0,95,0.00,,,0.00,Wunderground v.1.15,2013-02-25 14:20:00,
2013-02-25 08:25:00,21.5,20.3,30.16,NNW,342,3.0,6.0,95,0.00,,,0.00,Wunderground v.1.15,2013-02-25 14:25:00,
2013-02-25 08:30:00,21.7,20.5,30.16,North,355,1.0,4.0,95,0.00,,,0.00,Wunderground v.1.15,2013-02-25 14:30:00,
2013-02-25 08:35:00,21.8,20.6,30.16,North,355,0.0,4.0,95,0.00,,,0.00,Wunderground v.1.15,2013-02-25 14:35:00,
2013-02-25 08:40:00,22.0,20.8,30.16,North,355,2.0,4.0,95,0.00,,,0.00,Wunderground v.1.15,2013-02-25 14:40:00,
2013-02-25 08:45:00,22.1,20.9,30.16,North,9,3.0,4.0,95,0.00,,,0.00,Wunderground v.1.15,2013-02-25 14:45:00,
2013-02-25 08:50:00,22.3,21.1,30.15,North,355,5.0,5.0,95,0.00,,,0.00,Wunderground v.1.15,2013-02-25 14:50:00,
2013-02-25 08:55:00,22.5,21.3,30.15,North,350,3.0,5.0,95,0.00,,,0.00,Wunderground v.1.15,2013-02-25 14:55:00,
2013-02-25 09:01:00,22.7,21.5,30.16,North,351,1.0,3.0,95,0.00,,,0.00,Wunderground v.1.15,2013-02-25 15:01:00,
2013-02-25 09:06:00,22.8,21.6,30.16,North,355,3.0,4.0,95,0.00,,,0.00,Wunderground v.1.15,2013-02-25 15:06:00,
2013-02-25 09:11:00,23.0,21.8,30.16,North,351,1.0,2.0,95,0.00,,,0.00,Wunderground v.1.15,2013-02-25 15:11:00,
2013-02-25 09:16:00,23.2,22.0,30.15,North,355,2.0,3.0,95,0.00,,,0.00,Wunderground v.1.15,2013-02-25 15:16:00,
2013-02-25 09:21:00,23.4,22.2,30.16,North,355,1.0,4.0,95,0.00,,,0.00,Wunderground v.1.15,2013-02-25 15:21:00,
2013-02-25 09:26:00,23.6,22.6,30.16,North,355,1.0,4.0,96,0.00,,,0.00,Wunderground v.1.15,2013-02-25 15:26:00,
2013-02-25 09:31:00,23.9,22.9,30.16,North,355,4.0,4.0,96,0.00,,,0.00,Wunderground v.1.15,2013-02-25 15:31:00,
2013-02-25 09:36:00,24.0,22.8,30.16,North,5,4.0,5.0,95,0.00,,,0.00,Wunderground v.1.15,2013-02-25 15:36:00,
2013-02-25 09:41:00,24.1,23.1,30.16,North,5,4.0,5.0,96,0.00,,,0.00,Wunderground v.1.15,2013-02-25 15:41:00,
2013-02-25 09:46:00,24.2,23.2,30.16,North,5,1.0,5.0,96,0.00,,,0.00,Wunderground v.1.15,2013-02-25 15:46:00,
2013-02-25 09:51:00,24.4,23.4,30.16,North,360,4.0,4.0,96,0.00,,,0.00,Wunderground v.1.15,2013-02-25 15:51:00,
2013-02-25 09:56:00,24.5,23.3,30.16,North,11,1.0,6.0,95,0.00,,,0.00,Wunderground v.1.15,2013-02-25 15:56:00,
2013-02-25 10:01:00,24.5,23.3,30.16,North,355,6.0,6.0,95,0.00,,,0.00,Wunderground v.1.15,2013-02-25 16:01:00,
2013-02-25 10:06:00,24.4,23.2,30.16,NNW,336,7.0,8.0,95,0.00,,,0.00,Wunderground v.1.15,2013-02-25 16:06:00,
2013-02-25 10:11:00,24.4,23.2,30.16,NNW,336,0.0,5.0,95,0.00,,,0.00,Wunderground v.1.15,2013-02-25 16:11:00,
2013-02-25 10:16:00,24.5,23.3,30.17,North,5,3.0,6.0,95,0.00,,,0.00,Wunderground v.1.15,2013-02-25 16:16:00,
2013-02-25 10:21:00,24.7,23.7,30.17,North,355,5.0,6.0,96,0.00,,,0.00,Wunderground v.1.15,2013-02-25 16:21:00,
2013-02-25 10:26:00,24.7,23.7,30.16,NNE,13,3.0,6.0,96,0.00,,,0.00,Wunderground v.1.15,2013-02-25 16:26:00,
2013-02-25 10:31:00,24.6,23.6,30.17,NNW,346,5.0,6.0,96,0.00,,,0.00,Wunderground v.1.15,2013-02-25 16:31:00,
2013-02-25 10:36:00,24.8,23.8,30.16,North,355,4.0,6.0,96,0.00,,,0.00,Wunderground v.1.15,2013-02-25 16:36:00,
2013-02-25 10:41:00,24.8,23.8,30.16,North,360,3.0,5.0,96,0.00,,,0.00,Wunderground v.1.15,2013-02-25 16:41:00,
2013-02-25 10:46:00,24.9,23.9,30.16,NNW,348,4.0,7.0,96,0.00,,,0.00,Wunderground v.1.15,2013-02-25 16:46:00,
2013-02-25 10:51:00,24.7,23.5,30.16,NNW,347,6.0,6.0,95,0.00,,,0.00,Wunderground v.1.15,2013-02-25 16:51:00,
2013-02-25 10:56:00,24.9,23.9,30.15,North,10,3.0,7.0,96,0.00,,,0.00,Wunderground v.1.15,2013-02-25 16:56:00,
2013-02-25 11:01:00,25.1,24.1,30.15,North,5,5.0,6.0,96,0.00,,,0.00,Wunderground v.1.15,2013-02-25 17:01:00,
2013-02-25 11:06:00,24.9,23.7,30.15,NNW,343,6.0,9.0,95,0.00,,,0.00,Wunderground v.1.15,2013-02-25 17:06:00,
2013-02-25 11:11:00,24.8,23.8,30.15,North,355,3.0,7.0,96,0.00,,,0.00,Wunderground v.1.15,2013-02-25 17:11:00,
2013-02-25 11:16:00,24.8,23.6,30.15,NW,320,5.0,8.0,95,0.00,,,0.00,Wunderground v.1.15,2013-02-25 17:16:00,
2013-02-25 11:21:00,24.9,23.9,30.16,NNW,337,6.0,6.0,96,0.00,,,0.00,Wunderground v.1.15,2013-02-25 17:21:00,
2013-02-25 11:26:00,25.0,24.0,30.15,NNE,15,7.0,7.0,96,0.00,,,0.00,Wunderground v.1.15,2013-02-25 17:26:00,
2013-02-25 11:31:00,25.0,23.8,30.16,NNE,18,2.0,4.0,95,0.00,,,0.00,Wunderground v.1.15,2013-02-25 17:31:00,
2013-02-25 11:36:00,25.0,23.8,30.16,NNW,346,3.0,7.0,95,0.00,,,0.00,Wunderground v.1.15,2013-02-25 17:36:00,
2013-02-25 11:41:00,25.2,24.2,30.16,NNE,16,4.0,4.0,96,0.00,,,0.00,Wunderground v.1.15,2013-02-25 17:41:00,
2013-02-25 11:46:00,25.3,24.3,30.16,North,360,2.0,5.0,96,0.00,,,0.00,Wunderground v.1.15,2013-02-25 17:46:00,
2013-02-25 11:51:00,25.5,24.5,30.15,North,5,4.0,4.0,96,0.00,,,0.00,Wunderground v.1.15,2013-02-25 17:51:00,
2013-02-25 11:56:00,25.4,24.2,30.15,North,5,1.0,5.0,95,0.00,,,0.00,Wunderground v.1.15,2013-02-25 17:56:00,
2013-02-25 12:01:00,25.7,24.5,30.15,North,10,1.0,4.0,95,0.00,,,0.00,Wunderground v.1.15,2013-02-25 18:01:00,
2013-02-25 12:06:00,25.9,24.9,30.14,North,10,0.0,5.0,96,0.00,,,0.00,Wunderground v.1.15,2013-02-25 18:06:00,
2013-02-25 12:11:00,25.8,24.6,30.14,NNW,346,6.0,7.0,95,0.00,,,0.00,Wunderground v.1.15,2013-02-25 18:11:00,
2013-02-25 12:16:00,25.7,24.5,30.14,North,349,3.0,7.0,95,0.00,,,0.00,Wunderground v.1.15,2013-02-25 18:16:00,
2013-02-25 12:21:00,25.8,24.6,30.14,NNE,17,3.0,7.0,95,0.00,,,0.00,Wunderground v.1.15,2013-02-25 18:21:00,
2013-02-25 12:26:00,25.8,24.6,30.14,NNW,340,7.0,7.0,95,0.00,,,0.00,Wunderground v.1.15,2013-02-25 18:26:00,
2013-02-25 12:32:00,25.7,24.5,30.14,North,5,2.0,6.0,95,0.00,,,0.00,Wunderground v.1.15,2013-02-25 18:32:00,
2013-02-25 12:37:00,26.1,24.9,30.14,North,355,3.0,6.0,95,0.00,,,0.00,Wunderground v.1.15,2013-02-25 18:37:00,
2013-02-25 12:42:00,26.3,25.1,30.13,NNE,13,4.0,5.0,95,0.00,,,0.00,Wunderground v.1.15,2013-02-25 18:42:00,
2013-02-25 12:47:00,26.3,25.1,30.13,NNW,342,7.0,7.0,95,0.00,,,0.00,Wunderground v.1.15,2013-02-25 18:47:00,
2013-02-25 12:52:00,26.0,24.5,30.13,NW,315,6.0,8.0,94,0.00,,,0.00,Wunderground v.1.15,2013-02-25 18:52:00,
2013-02-25 12:57:00,26.2,24.7,30.12,NW,326,5.0,8.0,94,0.00,,,0.00,Wunderground v.1.15,2013-02-25 18:57:00,
2013-02-25 13:02:00,26.3,25.1,30.12,NNW,331,6.0,6.0,95,0.00,,,0.00,Wunderground v.1.15,2013-02-25 19:02:00,
2013-02-25 13:07:00,26.3,24.8,30.11,NW,321,4.0,8.0,94,0.00,,,0.00,Wunderground v.1.15,2013-02-25 19:07:00,
2013-02-25 13:12:00,26.5,25.0,30.10,NNW,334,3.0,6.0,94,0.00,,,0.00,Wunderground v.1.15,2013-02-25 19:12:00,
2013-02-25 13:17:00,27.1,25.9,30.10,North,360,4.0,6.0,95,0.00,,,0.00,Wunderground v.1.15,2013-02-25 19:17:00,
2013-02-25 13:22:00,27.0,25.5,30.10,NNW,342,3.0,7.0,94,0.00,,,0.00,Wunderground v.1.15,2013-02-25 19:22:00,
2013-02-25 13:27:00,26.9,25.1,30.10,NNW,329,8.0,8.0,93,0.00,,,0.00,Wunderground v.1.15,2013-02-25 19:27:00,
2013-02-25 13:32:00,27.0,25.0,30.11,NNW,346,6.0,8.0,92,0.00,,,0.00,Wunderground v.1.15,2013-02-25 19:32:00,
2013-02-25 13:37:00,27.2,25.2,30.11,NNW,338,2.0,8.0,92,0.00,,,0.00,Wunderground v.1.15,2013-02-25 19:37:00,
2013-02-25 13:42:00,28.0,26.2,30.10,NNW,338,1.0,4.0,93,0.00,,,0.00,Wunderground v.1.15,2013-02-25 19:42:00,
2013-02-25 13:47:00,28.3,25.7,30.10,WNW,293,1.0,8.0,90,0.00,,,0.00,Wunderground v.1.15,2013-02-25 19:47:00,
2013-02-25 13:52:00,28.2,25.6,30.10,North,351,2.0,6.0,90,0.00,,,0.00,Wunderground v.1.15,2013-02-25 19:52:00,
2013-02-25 13:57:00,28.2,25.6,30.10,North,5,2.0,6.0,90,0.00,,,0.00,Wunderground v.1.15,2013-02-25 19:57:00,
2013-02-25 14:02:00,28.4,25.8,30.10,North,5,4.0,5.0,90,0.00,,,0.00,Wunderground v.1.15,2013-02-25 20:02:00,
2013-02-25 14:07:00,28.4,25.6,30.10,NNE,19,3.0,6.0,89,0.00,,,0.00,Wunderground v.1.15,2013-02-25 20:07:00,
2013-02-25 14:12:00,28.5,25.7,30.10,NNE,28,1.0,3.0,89,0.00,,,0.00,Wunderground v.1.15,2013-02-25 20:12:00,
2013-02-25 14:17:00,28.9,26.1,30.10,NNE,28,2.0,4.0,89,0.00,,,0.00,Wunderground v.1.15,2013-02-25 20:17:00,
2013-02-25 14:22:00,28.9,25.8,30.10,NNE,26,5.0,5.0,88,0.00,,,0.00,Wunderground v.1.15,2013-02-25 20:22:00,
2013-02-25 14:27:00,28.5,25.1,30.10,NNE,19,0.0,6.0,87,0.00,,,0.00,Wunderground v.1.15,2013-02-25 20:27:00,
2013-02-25 14:32:00,28.8,25.7,30.09,NNE,19,0.0,3.0,88,0.00,,,0.00,Wunderground v.1.15,2013-02-25 20:32:00,
2013-02-25 14:37:00,28.9,25.2,30.09,NNE,29,3.0,7.0,86,0.00,,,0.00,Wunderground v.1.15,2013-02-25 20:37:00,
2013-02-25 14:42:00,29.0,25.3,30.09,East,94,3.0,4.0,86,0.00,,,0.00,Wunderground v.1.15,2013-02-25 20:42:00,
2013-02-25 14:47:00,29.2,25.3,30.09,ENE,69,1.0,9.0,85,0.00,,,0.00,Wunderground v.1.15,2013-02-25 20:47:00,
2013-02-25 14:52:00,29.0,25.1,30.09,ENE,66,1.0,8.0,85,0.00,,,0.00,Wunderground v.1.15,2013-02-25 20:52:00,
2013-02-25 14:57:00,29.0,25.1,30.10,ENE,71,0.0,8.0,85,0.00,,,0.00,Wunderground v.1.15,2013-02-25 20:57:00,
2013-02-25 15:02:00,28.9,24.7,30.10,ENE,77,3.0,4.0,84,0.00,,,0.00,Wunderground v.1.15,2013-02-25 21:02:00,
2013-02-25 15:07:00,28.3,24.1,30.10,ENE,67,7.0,10.0,84,0.00,,,0.00,Wunderground v.1.15,2013-02-25 21:07:00,
2013-02-25 15:12:00,28.3,24.6,30.10,ENE,57,3.0,6.0,86,0.00,,,0.00,Wunderground v.1.15,2013-02-25 21:12:00,
2013-02-25 15:17:00,28.4,24.5,30.10,ENE,63,3.0,8.0,85,0.00,,,0.00,Wunderground v.1.15,2013-02-25 21:17:00,
2013-02-25 15:22:00,28.2,24.3,30.10,NE,53,3.0,7.0,85,0.00,,,0.00,Wunderground v.1.15,2013-02-25 21:22:00,
2013-02-25 15:27:00,28.1,24.2,30.10,NE,51,4.0,8.0,85,0.00,,,0.00,Wunderground v.1.15,2013-02-25 21:27:00,
2013-02-25 15:32:00,27.8,23.9,30.10,NE,48,4.0,6.0,85,0.00,,,0.00,Wunderground v.1.15,2013-02-25 21:32:00,
2013-02-25 15:37:00,27.8,24.2,30.11,ENE,70,7.0,8.0,86,0.00,,,0.00,Wunderground v.1.15,2013-02-25 21:37:00,
2013-02-25 15:42:00,27.5,23.9,30.11,NE,44,2.0,8.0,86,0.00,,,0.00,Wunderground v.1.15,2013-02-25 21:42:00,
2013-02-25 15:47:00,27.3,23.9,30.11,ENE,69,3.0,8.0,87,0.00,,,0.00,Wunderground v.1.15,2013-02-25 21:47:00,
2013-02-25 15:52:00,27.2,23.8,30.11,NE,49,1.0,6.0,87,0.00,,,0.00,Wunderground v.1.15,2013-02-25 21:52:00,
2013-02-25 15:57:00,27.1,23.5,30.11,ENE,61,4.0,9.0,86,0.00,,,0.00,Wunderground v.1.15,2013-02-25 21:57:00,
2013-02-25 16:02:00,27.1,23.7,30.11,NNE,30,7.0,7.0,87,0.00,,,0.00,Wunderground v.1.15,2013-02-25 22:02:00,
2013-02-25 16:07:00,26.9,23.5,30.11,NE,36,4.0,7.0,87,0.00,,,0.00,Wunderground v.1.15,2013-02-25 22:07:00,
2013-02-25 16:12:00,26.4,23.1,30.11,ENE,58,1.0,7.0,87,0.00,,,0.00,Wunderground v.1.15,2013-02-25 22:12:00,
2013-02-25 16:18:00,26.4,23.1,30.10,ENE,65,2.0,7.0,87,0.00,,,0.00,Wunderground v.1.15,2013-02-25 22:18:00,
2013-02-25 16:23:00,26.3,23.0,30.10,NNE,22,7.0,7.0,87,0.00,,,0.00,Wunderground v.1.15,2013-02-25 22:23:00,
2013-02-25 16:28:00,25.7,22.4,30.10,NE,40,0.0,8.0,87,0.00,,,0.00,Wunderground v.1.15,2013-02-25 22:28:00,
2013-02-25 16:33:00,25.4,22.3,30.10,NE,41,1.0,5.0,88,0.00,,,0.00,Wunderground v.1.15,2013-02-25 22:33:00,
2013-02-25 16:38:00,25.3,22.2,30.10,NNE,24,2.0,8.0,88,0.00,,,0.00,Wunderground v.1.15,2013-02-25 22:38:00,
2013-02-25 16:43:00,25.3,22.5,30.10,ENE,63,7.0,7.0,89,0.00,,,0.00,Wunderground v.1.15,2013-02-25 22:43:00,
2013-02-25 16:48:00,25.0,22.2,30.10,NNE,30,1.0,8.0,89,0.00,,,0.00,Wunderground v.1.15,2013-02-25 22:48:00,
2013-02-25 16:53:00,24.9,22.1,30.10,ENE,64,4.0,4.0,89,0.00,,,0.00,Wunderground v.1.15,2013-02-25 22:53:00,
2013-02-25 16:58:00,24.8,22.3,30.10,ESE,112,3.0,5.0,90,0.00,,,0.00,Wunderground v.1.15,2013-02-25 22:58:00,
2013-02-25 17:03:00,24.8,22.3,30.10,ENE,57,3.0,7.0,90,0.00,,,0.00,Wunderground v.1.15,2013-02-25 23:03:00,
2013-02-25 17:08:00,24.7,22.2,30.09,NNE,19,1.0,8.0,90,0.00,,,0.00,Wunderground v.1.15,2013-02-25 23:08:00,
2013-02-25 17:13:00,24.4,21.9,30.09,NE,47,3.0,8.0,90,0.00,,,0.00,Wunderground v.1.15,2013-02-25 23:13:00,
2013-02-25 17:18:00,24.3,22.1,30.09,ENE,65,3.0,8.0,91,0.00,,,0.00,Wunderground v.1.15,2013-02-25 23:18:00,
2013-02-25 17:23:00,24.2,22.0,30.09,East,80,6.0,8.0,91,0.00,,,0.00,Wunderground v.1.15,2013-02-25 23:23:00,
2013-02-25 17:28:00,24.1,21.9,30.09,NE,51,2.0,8.0,91,0.00,,,0.00,Wunderground v.1.15,2013-02-25 23:28:00,
2013-02-25 17:33:00,24.0,22.0,30.09,ESE,103,3.0,6.0,92,0.00,,,0.00,Wunderground v.1.15,2013-02-25 23:33:00,
2013-02-25 17:38:00,23.9,21.7,30.09,East,84,3.0,7.0,91,0.00,,,0.00,Wunderground v.1.15,2013-02-25 23:38:00,
2013-02-25 17:43:00,23.5,21.5,30.09,ESE,105,5.0,8.0,92,0.00,,,0.00,Wunderground v.1.15,2013-02-25 23:43:00,
2013-02-25 17:48:00,23.2,21.2,30.09,ENE,72,1.0,8.0,92,0.00,,,0.00,Wunderground v.1.15,2013-02-25 23:48:00,
2013-02-25 17:53:00,23.0,21.0,30.10,East,79,1.0,7.0,92,0.00,,,0.00,Wunderground v.1.15,2013-02-25 23:53:00,
2013-02-25 17:58:00,22.7,20.7,30.10,East,84,1.0,7.0,92,0.00,,,0.00,Wunderground v.1.15,2013-02-25 23:58:00,
2013-02-25 18:03:00,22.6,20.9,30.10,East,82,3.0,7.0,93,0.00,,,0.00,Wunderground v.1.15,2013-02-26 00:03:00,
2013-02-25 18:08:00,22.5,20.8,30.10,NE,54,4.0,7.0,93,0.00,,,0.00,Wunderground v.1.15,2013-02-26 00:08:00,
2013-02-25 18:13:00,22.3,20.6,30.10,ENE,76,3.0,5.0,93,0.00,,,0.00,Wunderground v.1.15,2013-02-26 00:13:00,
2013-02-25 18:18:00,22.2,20.5,30.10,ENE,60,2.0,6.0,93,0.00,,,0.00,Wunderground v.1.15,2013-02-26 00:18:00,
2013-02-25 18:23:00,21.9,20.2,30.10,ENE,69,4.0,8.0,93,0.00,,,0.00,Wunderground v.1.15,2013-02-26 00:23:00,
2013-02-25 18:29:00,21.7,20.0,30.10,NE,53,3.0,8.0,93,0.00,,,0.00,Wunderground v.1.15,2013-02-26 00:29:00,
2013-02-25 18:34:00,21.5,19.8,30.10,NE,34,5.0,7.0,93,0.00,,,0.00,Wunderground v.1.15,2013-02-26 00:34:00,
2013-02-25 18:39:00,21.3,19.8,30.10,ENE,71,7.0,8.0,94,0.00,,,0.00,Wunderground v.1.15,2013-02-26 00:39:00,
2013-02-25 18:44:00,21.3,19.8,30.10,ENE,74,2.0,6.0,94,0.00,,,0.00,Wunderground v.1.15,2013-02-26 00:44:00,
2013-02-25 18:49:00,21.3,19.8,30.11,NE,56,7.0,7.0,94,0.00,,,0.00,Wunderground v.1.15,2013-02-26 00:49:00,
2013-02-25 18:54:00,21.2,19.7,30.10,NE,55,1.0,8.0,94,0.00,,,0.00,Wunderground v.1.15,2013-02-26 00:54:00,
2013-02-25 18:59:00,21.4,19.9,30.11,NE,51,4.0,8.0,94,0.00,,,0.00,Wunderground v.1.15,2013-02-26 00:59:00,
2013-02-25 19:04:00,21.4,19.9,30.10,ENE,60,0.0,4.0,94,0.00,,,0.00,Wunderground v.1.15,2013-02-26 01:04:00,
2013-02-25 19:09:00,21.5,20.0,30.10,NE,55,4.0,7.0,94,0.00,,,0.00,Wunderground v.1.15,2013-02-26 01:09:00,
2013-02-25 19:14:00,21.6,20.1,30.10,NE,47,5.0,7.0,94,0.00,,,0.00,Wunderground v.1.15,2013-02-26 01:14:00,
2013-02-25 19:19:00,21.4,19.9,30.10,NE,43,2.0,9.0,94,0.00,,,0.00,Wunderground v.1.15,2013-02-26 01:19:00,
2013-02-25 19:24:00,21.4,20.2,30.10,NE,49,1.0,8.0,95,0.00,,,0.00,Wunderground v.1.15,2013-02-26 01:24:00,
2013-02-25 19:29:00,21.4,20.2,30.10,NNE,24,7.0,9.0,95,0.00,,,0.00,Wunderground v.1.15,2013-02-26 01:29:00,
2013-02-25 19:34:00,21.1,19.6,30.10,NE,46,7.0,10.0,94,0.00,,,0.00,Wunderground v.1.15,2013-02-26 01:34:00,
2013-02-25 19:39:00,20.9,19.4,30.10,NE,34,6.0,10.0,94,0.00,,,0.00,Wunderground v.1.15,2013-02-26 01:39:00,
2013-02-25 19:44:00,21.0,19.5,30.10,NE,36,6.0,7.0,94,0.00,,,0.00,Wunderground v.1.15,2013-02-26 01:44:00,
2013-02-25 19:49:00,20.5,19.0,30.10,NNE,28,4.0,11.0,94,0.00,,,0.00,Wunderground v.1.15,2013-02-26 01:49:00,
2013-02-25 19:54:00,20.3,18.8,30.10,NNE,30,2.0,8.0,94,0.00,,,0.00,Wunderground v.1.15,2013-02-26 01:54:00,
2013-02-25 19:59:00,20.4,18.9,30.09,NNE,24,7.0,8.0,94,0.00,,,0.00,Wunderground v.1.15,2013-02-26 01:59:00,
2013-02-25 20:04:00,20.5,19.0,30.10,NE,42,6.0,7.0,94,0.00,,,0.00,Wunderground v.1.15,2013-02-26 02:04:00,
2013-02-25 20:09:00,20.6,19.1,30.09,ENE,60,0.0,7.0,94,0.00,,,0.00,Wunderground v.1.15,2013-02-26 02:09:00,
2013-02-25 20:14:00,20.6,19.4,30.09,NE,35,4.0,8.0,95,0.00,,,0.00,Wunderground v.1.15,2013-02-26 02:14:00,
2013-02-25 20:19:00,20.7,19.2,30.09,NNE,33,4.0,8.0,94,0.00,,,0.00,Wunderground v.1.15,2013-02-26 02:19:00,
2013-02-25 20:24:00,20.8,19.6,30.09,NE,36,6.0,9.0,95,0.00,,,0.00,Wunderground v.1.15,2013-02-26 02:24:00,
2013-02-25 20:29:00,20.7,19.5,30.08,NNE,32,7.0,11.0,95,0.00,,,0.00,Wunderground v.1.15,2013-02-26 02:29:00,
2013-02-25 20:34:00,20.6,19.4,30.08,ENE,64,9.0,9.0,95,0.00,,,0.00,Wunderground v.1.15,2013-02-26 02:34:00,
2013-02-25 20:39:00,20.6,19.4,30.08,NNE,27,7.0,11.0,95,0.00,,,0.00,Wunderground v.1.15,2013-02-26 02:39:00,
2013-02-25 20:44:00,20.7,19.5,30.08,NE,47,3.0,9.0,95,0.00,,,0.00,Wunderground v.1.15,2013-02-26 02:44:00,
2013-02-25 20:49:00,20.7,19.5,30.07,NE,37,7.0,9.0,95,0.00,,,0.00,Wunderground v.1.15,2013-02-26 02:49:00,
2013-02-25 20:54:00,20.6,19.1,30.07,NE,54,4.0,9.0,94,0.00,,,0.00,Wunderground v.1.15,2013-02-26 02:54:00,
2013-02-25 20:59:00,20.7,19.5,30.06,NNE,30,6.0,9.0,95,0.00,,,0.00,Wunderground v.1.15,2013-02-26 02:59:00,
2013-02-25 21:04:00,20.6,19.1,30.07,NE,42,3.0,7.0,94,0.00,,,0.00,Wunderground v.1.15,2013-02-26 03:04:00,
2013-02-25 21:09:00,20.5,19.0,30.07,NE,34,9.0,9.0,94,0.00,,,0.00,Wunderground v.1.15,2013-02-26 03:09:00,
2013-02-25 21:14:00,20.6,19.4,30.06,ENE,61,2.0,11.0,95,0.00,,,0.00,Wunderground v.1.15,2013-02-26 03:14:00,
2013-02-25 21:19:00,20.5,19.0,30.06,ENE,57,10.0,11.0,94,0.00,,,0.00,Wunderground v.1.15,2013-02-26 03:19:00,
2013-02-25 21:24:00,20.4,18.9,30.06,NE,38,8.0,10.0,94,0.00,,,0.00,Wunderground v.1.15,2013-02-26 03:24:00,
2013-02-25 21:29:00,20.4,18.9,30.06,ENE,57,5.0,10.0,94,0.00,,,0.00,Wunderground v.1.15,2013-02-26 03:29:00,
2013-02-25 21:35:00,20.4,18.9,30.06,ENE,59,3.0,9.0,94,0.00,,,0.00,Wunderground v.1.15,2013-02-26 03:35:00,
2013-02-25 21:40:00,20.4,18.9,30.06,NE,55,5.0,5.0,94,0.00,,,0.00,Wunderground v.1.15,2013-02-26 03:40:00,
2013-02-25 21:45:00,20.4,18.9,30.06,NE,47,6.0,10.0,94,0.00,,,0.00,Wunderground v.1.15,2013-02-26 03:45:00,
2013-02-25 21:50:00,20.4,18.9,30.06,NE,46,4.0,5.0,94,0.00,,,0.00,Wunderground v.1.15,2013-02-26 03:50:00,
2013-02-25 21:55:00,20.3,18.8,30.05,NNE,31,10.0,13.0,94,0.00,,,0.00,Wunderground v.1.15,2013-02-26 03:55:00,
2013-02-25 22:00:00,20.4,18.9,30.05,NE,41,2.0,6.0,94,0.00,,,0.00,Wunderground v.1.15,2013-02-26 04:00:00,
2013-02-25 22:05:00,20.4,18.9,30.05,ENE,59,1.0,9.0,94,0.00,,,0.00,Wunderground v.1.15,2013-02-26 04:05:00,
2013-02-25 22:10:00,20.4,18.9,30.05,ENE,59,1.0,3.0,94,0.00,,,0.00,Wunderground v.1.15,2013-02-26 04:10:00,
2013-02-25 22:15:00,20.2,18.8,30.06,East,92,3.0,11.0,94,0.00,,,0.00,Wunderground v.1.15,2013-02-26 04:15:00,
2013-02-25 22:20:00,20.2,18.8,30.06,ENE,58,2.0,4.0,94,0.00,,,0.00,Wunderground v.1.15,2013-02-26 04:20:00,
2013-02-25 22:25:00,20.1,18.7,30.06,NE,45,9.0,9.0,94,0.00,,,0.00,Wunderground v.1.15,2013-02-26 04:25:00,
2013-02-25 22:30:00,20.0,18.6,30.06,NE,37,5.0,6.0,94,0.00,,,0.00,Wunderground v.1.15,2013-02-26 04:30:00,
2013-02-25 22:35:00,20.0,18.6,30.05,ENE,59,1.0,11.0,94,0.00,,,0.00,Wunderground v.1.15,2013-02-26 04:35:00,
2013-02-25 22:40:00,20.1,18.7,30.05,NE,41,7.0,11.0,94,0.00,,,0.00,Wunderground v.1.15,2013-02-26 04:40:00,
2013-02-25 22:45:00,20.0,18.6,30.05,NE,46,4.0,11.0,94,0.00,,,0.00,Wunderground v.1.15,2013-02-26 04:45:00,
2013-02-25 22:50:00,19.9,18.5,30.05,NE,39,8.0,10.0,94,0.00,,,0.00,Wunderground v.1.15,2013-02-26 04:50:00,
2013-02-25 22:55:00,19.9,18.7,30.05,NE,42,4.0,10.0,95,0.00,,,0.00,Wunderground v.1.15,2013-02-26 04:55:00,
2013-02-25 23:00:00,20.1,18.7,30.05,ENE,71,5.0,8.0,94,0.00,,,0.00,Wunderground v.1.15,2013-02-26 05:00:00,
2013-02-25 23:01:00,20.2,19.0,30.05,ENE,59,9.0,9.0,95,0.00,,,0.00,Wunderground v.1.15,2013-02-26 05:01:00,
2013-02-25 23:06:00,20.5,19.3,30.06,NE,43,3.0,11.0,95,0.00,,,0.00,Wunderground v.1.15,2013-02-26 05:06:00,
2013-02-25 23:11:00,20.8,19.6,30.07,East,83,8.0,10.0,95,0.00,,,0.00,Wunderground v.1.15,2013-02-26 05:11:00,
2013-02-25 23:16:00,20.9,19.7,30.07,East,86,10.0,15.0,95,0.00,,,0.00,Wunderground v.1.15,2013-02-26 05:16:00,
2013-02-25 23:21:00,21.1,19.9,30.07,ESE,102,7.0,11.0,95,0.00,,,0.00,Wunderground v.1.15,2013-02-26 05:21:00,
2013-02-25 23:26:00,21.2,20.0,30.07,ENE,71,9.0,12.0,95,0.00,,,0.00,Wunderground v.1.15,2013-02-26 05:26:00,
2013-02-25 23:31:00,21.3,20.1,30.07,NNE,17,2.0,13.0,95,0.00,,,0.00,Wunderground v.1.15,2013-02-26 05:31:00,
2013-02-25 23:36:00,21.3,20.1,30.06,East,85,9.0,13.0,95,0.00,,,0.00,Wunderground v.1.15,2013-02-26 05:36:00,
2013-02-25 23:41:00,21.3,20.1,30.06,East,86,7.0,8.0,95,0.00,,,0.00,Wunderground v.1.15,2013-02-26 05:41:00,
2013-02-25 23:46:00,21.3,20.1,30.06,ENE,58,7.0,13.0,95,0.00,,,0.00,Wunderground v.1.15,2013-02-26 05:46:00,
2013-02-25 23:51:00,21.4,20.2,30.06,NE,39,3.0,8.0,95,0.00,,,0.00,Wunderground v.1.15,2013-02-26 05:51:00,
2013-02-25 23:56:00,21.5,20.3,30.07,East,95,7.0,10.0,95,0.00,,,0.00,Wunderground v.1.15,2013-02-26 05:56:00,